Regional Weather Roundup
Issued by NWS Kansas City/Pleasant Hill, MO

Home | Current Version | Previous Version | Graphics & Text | Print | Product List | Glossary Off
Versions: 1 2 3 4 5 6 7 8 9 10 11 12 13 14 15 16 17 18 19 20 21 22 23 24 25 26 27 28 29 30 31 32 33 34 35 36 37 38 39 40 41 42 43 44 45 46 47 48 49 50

000
ASUS43 KEAX 152004
RWREAX

WEATHER ROUNDUP FOR EASTERN KANSAS AND NORTHWEST MISSOURI
NATIONAL WEATHER SERVICE KANSAS CITY/PLEASANT HILL MO
300 PM CDT TUE APR 15 2014

KSZ040-057-103>105-MOZ028-029-037-043-152100-
...KANSAS CITY METROPOLITAN AREA...

CITY           SKY/WX    TMP DP  RH WIND       PRES   REMARKS
K.C. INTL      MOSUNNY   51  23  33 VRB3      30.13F
K.C. DOWNTOWN  SUNNY     52  22  30 VRB3      30.14F
LEES SUMMIT    SUNNY     50  22  33 SW8       30.15F
OLATHE - IXD   SUNNY     51  24  34 MISG      30.15F
OLATHE - OJC   SUNNY     50  24  36 VRB3      30.14F
LAWRENCE       SUNNY     53  24  32 CALM      30.13F

$$

MOZ001>008-011>017-020>025-030>033-038>040-044>046-053-054-152100-
...NORTHERN AND CENTRAL MISSOURI...

CITY           SKY/WX    TMP DP  RH WIND       PRES   REMARKS
ST. JOSEPH     SUNNY     50  23  34 S9        30.13F
MOSBY          FAIR      48  21  34 W3        30.15F
WHITEMAN AFB   SUNNY     49  23  36 SW9       30.17F
CLINTON        SUNNY     50  28  43 SW6       30.20F
SEDALIA        MOSUNNY   50  23  34 VRB5      30.19F
WARSAW         NOT AVBL
MARSHALL         N/A     48  30  49 SW10      30.22S
CHILLICOTHE      N/A     48  20  32 MISG      30.17F
MOBERLY        MOSUNNY   48  21  34 SW12G17   30.19F
KIRKSVILLE     SUNNY     47  16  29 MISG      30.16F

$$

MOZ041-047>049-056>058-063>065-088>090-097-152100-
...EASTERN AND SOUTHERN MISSOURI...

CITY           SKY/WX    TMP DP  RH WIND       PRES   REMARKS
ST. LOUIS INTL MOSUNNY   48  20  32 N10G17    30.21S
SPIRIT OF STL  MOSUNNY   48  22  35 NW15G21   30.20F
COLUMBIA       MOSUNNY   49  23  36 NW14      30.20F
JEFFERSON CITY SUNNY     47  21  35 NW12      30.21F
MEXICO         MOSUNNY   45  25  45 W8        30.19F
HANNIBAL       MOSUNNY   48  12  23 NW7       30.18F
ROLLA          SUNNY     46  22  38 W9        30.18F
LEBANON        SUNNY     50  19  29 SW8G16    30.19F
OSAGE BEACH    SUNNY     48  19  32 NW7G18    30.21F
SPRINGFIELD    SUNNY     50  21  32 W8        30.18F
BRANSON        SUNNY     50  21  32 NW5       30.19F
JOPLIN         SUNNY     55  27  34 NW9       30.18F
WEST PLAINS    SUNNY     49  20  31 NW5G20    30.19F
MALDEN         SUNNY     50  19  29 NW8G16    30.22F

$$

IAZ060-094-KSZ022-034>040-054-083-096-NEZ052-066-093-152100-
...KANSAS...SOUTHEAST NEBRASKA AND IOWA...

CITY           SKY/WX    TMP DP  RH WIND       PRES   REMARKS
TOPEKA         SUNNY     54  24  31 S7G18     30.11F
MANHATTAN      SUNNY     60  23  24 SW16G24   30.06F
EMPORIA        SUNNY     57  22  25 S13G18    30.09F
CHANUTE        SUNNY     55  23  28 VRB7      30.16F
WICHITA        MOSUNNY   61  19  19 S16       30.09F
OMAHA          MOSUNNY   49  20  31 S16G22    30.07F
LINCOLN        MOSUNNY   54  25  32 S16G25    30.04F
FALLS CITY     SUNNY     52  26  36 S9G20     30.08F
LAMONI         SUNNY     45  15  30 VRB3      30.12F
DES MOINES     MOSUNNY   43  18  36 SW5       30.14F

$$




USA.gov is the U.S. government's official web portal to all federal, state and local government web resources and services.